Time,TemperatureF,DewpointF,PressureIn,WindDirection,WindDirectionDegrees,WindSpeedMPH,WindSpeedGustMPH,Humidity,HourlyPrecipIn,Conditions,Clouds,dailyrainin,SoftwareType,DateUTC
2013-05-14 00:00:00,66.0,56.8,29.87,SSE,148,2.6,5.2,71,0.00,n/a,n/a,-99.99,Henriksen +1-Wire,2013-05-14 07:00:00,
2013-05-14 00:06:00,66.0,56.8,29.87,SSE,157,1.4,5.2,71,0.00,n/a,n/a,-99.99,Henriksen +1-Wire,2013-05-14 07:06:00,
2013-05-14 00:11:00,66.1,56.8,29.88,South,182,1.0,3.9,71,0.00,n/a,n/a,-99.99,Henriksen +1-Wire,2013-05-14 07:11:00,
2013-05-14 00:18:00,66.2,56.9,29.87,SSW,206,3.5,6.4,71,0.00,n/a,n/a,-99.99,Henriksen +1-Wire,2013-05-14 07:18:00,
2013-05-14 00:23:00,66.4,56.8,29.87,SW,227,1.3,7.8,70,0.00,n/a,n/a,-99.99,Henriksen +1-Wire,2013-05-14 07:23:00,
2013-05-14 00:30:00,66.4,56.7,29.88,SW,219,2.0,6.5,70,0.00,n/a,n/a,-99.99,Henriksen +1-Wire,2013-05-14 07:30:00,
2013-05-14 00:36:00,66.2,56.6,29.87,South,188,1.5,4.6,70,0.00,n/a,n/a,-99.99,Henriksen +1-Wire,2013-05-14 07:36:00,
2013-05-14 00:42:00,66.0,56.5,29.87,SE,134,1.1,3.4,71,0.00,n/a,n/a,-99.99,Henriksen +1-Wire,2013-05-14 07:42:00,
2013-05-14 00:47:00,65.8,56.4,29.87,SSE,149,0.6,3.2,71,0.00,n/a,n/a,-99.99,Henriksen +1-Wire,2013-05-14 07:47:00,
2013-05-14 00:53:00,65.5,56.4,29.87,South,175,1.5,3.9,72,0.00,n/a,n/a,-99.99,Henriksen +1-Wire,2013-05-14 07:53:00,
2013-05-14 01:00:00,65.4,56.4,29.87,South,182,1.0,7.1,72,0.00,n/a,n/a,-99.99,Henriksen +1-Wire,2013-05-14 08:00:00,
2013-05-14 01:06:00,65.3,56.3,29.87,SW,235,1.0,3.3,72,0.00,n/a,n/a,-99.99,Henriksen +1-Wire,2013-05-14 08:06:00,
2013-05-14 01:11:00,65.0,56.0,29.87,South,170,0.0,2.6,72,0.00,n/a,n/a,-99.99,Henriksen +1-Wire,2013-05-14 08:11:00,
2013-05-14 01:18:00,64.7,55.8,29.87,South,175,0.6,1.9,72,0.00,n/a,n/a,-99.99,Henriksen +1-Wire,2013-05-14 08:18:00,
2013-05-14 01:24:00,64.6,55.9,29.87,SE,131,1.2,3.2,73,0.00,n/a,n/a,-99.99,Henriksen +1-Wire,2013-05-14 08:24:00,
2013-05-14 01:30:00,64.4,55.9,29.87,SE,141,0.7,3.9,73,0.00,n/a,n/a,-99.99,Henriksen +1-Wire,2013-05-14 08:30:00,
2013-05-14 01:35:00,64.2,55.9,29.87,SE,138,0.7,3.9,74,0.00,n/a,n/a,-99.99,Henriksen +1-Wire,2013-05-14 08:35:00,
2013-05-14 01:42:00,64.0,55.8,29.87,ESE,112,0.7,3.2,74,0.00,n/a,n/a,-99.99,Henriksen +1-Wire,2013-05-14 08:42:00,
2013-05-14 01:48:00,63.7,55.7,29.86,East,97,0.9,3.2,75,0.00,n/a,n/a,-99.99,Henriksen +1-Wire,2013-05-14 08:48:00,
2013-05-14 01:54:00,63.4,55.6,29.86,East,92,1.6,3.9,75,0.00,n/a,n/a,-99.99,Henriksen +1-Wire,2013-05-14 08:54:00,
2013-05-14 02:00:00,63.2,55.7,29.86,East,94,1.8,3.9,76,0.00,n/a,n/a,-99.99,Henriksen +1-Wire,2013-05-14 09:00:00,
2013-05-14 02:06:00,63.1,55.8,29.86,East,100,1.2,4.5,76,0.00,n/a,n/a,-99.99,Henriksen +1-Wire,2013-05-14 09:06:00,
2013-05-14 02:12:00,63.0,55.9,29.86,ESE,108,0.3,3.2,77,0.00,n/a,n/a,-99.99,Henriksen +1-Wire,2013-05-14 09:12:00,
2013-05-14 02:18:00,62.8,55.8,29.86,SE,125,1.0,2.6,77,0.00,n/a,n/a,-99.99,Henriksen +1-Wire,2013-05-14 09:18:00,
2013-05-14 02:23:00,62.6,55.7,29.86,ESE,117,1.4,3.2,77,0.00,n/a,n/a,-99.99,Henriksen +1-Wire,2013-05-14 09:23:00,
2013-05-14 02:30:00,62.5,55.7,29.86,ESE,120,0.7,4.5,78,0.00,n/a,n/a,-99.99,Henriksen +1-Wire,2013-05-14 09:30:00,
2013-05-14 02:36:00,62.4,55.6,29.86,East,100,0.7,2.6,78,0.00,n/a,n/a,-99.99,Henriksen +1-Wire,2013-05-14 09:36:00,
2013-05-14 02:41:00,62.2,55.6,29.86,SE,133,0.6,3.9,78,0.00,n/a,n/a,-99.99,Henriksen +1-Wire,2013-05-14 09:41:00,
2013-05-14 02:47:00,61.9,55.4,29.86,SE,134,0.8,3.9,79,0.00,n/a,n/a,-99.99,Henriksen +1-Wire,2013-05-14 09:47:00,
2013-05-14 02:54:00,61.7,55.3,29.86,NE,55,1.3,2.6,79,0.00,n/a,n/a,-99.99,Henriksen +1-Wire,2013-05-14 09:54:00,
2013-05-14 03:00:00,61.4,55.3,29.86,East,98,0.6,3.2,80,0.00,n/a,n/a,-99.99,Henriksen +1-Wire,2013-05-14 10:00:00,
2013-05-14 03:06:00,61.2,55.4,29.86,NNE,31,0.6,3.2,80,0.00,n/a,n/a,-99.99,Henriksen +1-Wire,2013-05-14 10:06:00,
2013-05-14 03:12:00,61.0,55.4,29.86,East,91,2.1,3.3,81,0.00,n/a,n/a,-99.99,Henriksen +1-Wire,2013-05-14 10:12:00,
2013-05-14 03:18:00,60.8,55.5,29.86,East,87,1.1,3.9,82,0.00,n/a,n/a,-99.99,Henriksen +1-Wire,2013-05-14 10:18:00,
2013-05-14 03:24:00,60.5,55.4,29.86,NE,53,2.0,3.9,82,0.00,n/a,n/a,-99.99,Henriksen +1-Wire,2013-05-14 10:24:00,
2013-05-14 03:30:00,60.3,55.3,29.85,East,95,2.5,3.9,83,0.00,n/a,n/a,-99.99,Henriksen +1-Wire,2013-05-14 10:30:00,
2013-05-14 03:36:00,60.2,55.4,29.85,SE,139,0.3,3.9,83,0.00,n/a,n/a,-99.99,Henriksen +1-Wire,2013-05-14 10:36:00,
2013-05-14 03:42:00,60.1,55.3,29.85,East,79,0.7,2.6,84,0.00,n/a,n/a,-99.99,Henriksen +1-Wire,2013-05-14 10:42:00,
2013-05-14 03:48:00,59.9,55.2,29.85,NE,51,0.0,2.6,84,0.00,n/a,n/a,-99.99,Henriksen +1-Wire,2013-05-14 10:48:00,
2013-05-14 03:54:00,59.6,54.9,29.85,SSE,157,0.0,0.8,84,0.00,n/a,n/a,-99.99,Henriksen +1-Wire,2013-05-14 10:54:00,
2013-05-14 04:00:00,59.3,54.9,29.84,SSE,168,0.0,0.0,85,0.00,n/a,n/a,-99.99,Henriksen +1-Wire,2013-05-14 11:00:00,
2013-05-14 04:06:00,59.0,54.8,29.84,SE,137,0.0,0.0,85,0.00,n/a,n/a,-99.99,Henriksen +1-Wire,2013-05-14 11:06:00,
2013-05-14 04:12:00,58.8,54.7,29.83,SSE,166,0.6,1.3,86,0.00,n/a,n/a,-99.99,Henriksen +1-Wire,2013-05-14 11:12:00,
2013-05-14 04:18:00,58.6,54.7,29.83,SE,146,0.4,0.8,86,0.00,n/a,n/a,-99.99,Henriksen +1-Wire,2013-05-14 11:18:00,
2013-05-14 04:23:00,58.4,54.7,29.83,East,101,0.6,0.8,87,0.00,n/a,n/a,-99.99,Henriksen +1-Wire,2013-05-14 11:23:00,
2013-05-14 04:30:00,58.2,54.7,29.84,SE,137,0.8,2.0,88,0.00,n/a,n/a,-99.99,Henriksen +1-Wire,2013-05-14 11:30:00,
2013-05-14 04:36:00,58.1,54.8,29.84,East,96,0.0,2.0,88,0.00,n/a,n/a,-99.99,Henriksen +1-Wire,2013-05-14 11:36:00,
2013-05-14 06:42:00,57.1,53.7,29.85,SE,130,0.6,0.8,88,0.00,n/a,n/a,-99.99,Henriksen +1-Wire,2013-05-14 13:42:00,
2013-05-14 06:48:00,57.3,54.0,29.86,SE,141,0.6,1.3,88,0.00,n/a,n/a,-99.99,Henriksen +1-Wire,2013-05-14 13:48:00,
2013-05-14 06:53:00,57.5,54.4,29.86,South,172,0.0,1.3,89,0.00,n/a,n/a,-99.99,Henriksen +1-Wire,2013-05-14 13:53:00,
2013-05-14 07:00:00,57.7,54.5,29.86,South,180,0.2,0.8,88,0.00,n/a,n/a,-99.99,Henriksen +1-Wire,2013-05-14 14:00:00,
2013-05-14 07:05:00,57.9,54.6,29.86,SSW,206,0.6,0.8,88,0.00,n/a,n/a,-99.99,Henriksen +1-Wire,2013-05-14 14:05:00,
2013-05-14 07:12:00,58.4,54.9,29.86,SW,217,0.7,1.3,88,0.00,n/a,n/a,-99.99,Henriksen +1-Wire,2013-05-14 14:12:00,
2013-05-14 07:18:00,58.8,55.1,29.86,SW,233,0.6,1.3,87,0.00,n/a,n/a,-99.99,Henriksen +1-Wire,2013-05-14 14:18:00,
2013-05-14 07:24:00,59.1,55.1,29.86,South,176,0.4,0.8,86,0.00,n/a,n/a,-99.99,Henriksen +1-Wire,2013-05-14 14:24:00,
2013-05-14 07:30:00,59.4,55.2,29.86,SW,235,0.3,1.3,85,0.00,n/a,n/a,-99.99,Henriksen +1-Wire,2013-05-14 14:30:00,
2013-05-14 07:36:00,59.8,55.3,29.86,SW,218,0.6,1.3,85,0.00,n/a,n/a,-99.99,Henriksen +1-Wire,2013-05-14 14:36:00,
2013-05-14 07:42:00,60.0,55.4,29.86,ESE,108,0.6,1.3,84,0.00,n/a,n/a,-99.99,Henriksen +1-Wire,2013-05-14 14:42:00,
2013-05-14 07:48:00,60.5,55.6,29.86,SE,139,0.6,1.3,83,0.00,n/a,n/a,-99.99,Henriksen +1-Wire,2013-05-14 14:48:00,
2013-05-14 07:53:00,60.8,55.7,29.86,East,81,1.8,3.3,83,0.00,n/a,n/a,-99.99,Henriksen +1-Wire,2013-05-14 14:53:00,
2013-05-14 08:00:00,61.3,56.0,29.87,East,90,0.9,3.3,82,0.00,n/a,n/a,-99.99,Henriksen +1-Wire,2013-05-14 15:00:00,
2013-05-14 08:06:00,61.8,56.3,29.86,East,98,0.8,4.5,81,0.00,n/a,n/a,-99.99,Henriksen +1-Wire,2013-05-14 15:06:00,
2013-05-14 08:12:00,62.3,56.4,29.86,ESE,120,0.7,4.5,80,0.00,n/a,n/a,-99.99,Henriksen +1-Wire,2013-05-14 15:12:00,
2013-05-14 08:18:00,63.3,57.1,29.86,SE,126,0.3,3.9,79,0.00,n/a,n/a,-99.99,Henriksen +1-Wire,2013-05-14 15:18:00,
2013-05-14 08:24:00,64.6,57.8,29.87,East,86,3.3,5.8,78,0.00,n/a,n/a,-99.99,Henriksen +1-Wire,2013-05-14 15:24:00,
2013-05-14 08:30:00,65.6,58.3,29.87,East,87,3.8,6.4,76,0.00,n/a,n/a,-99.99,Henriksen +1-Wire,2013-05-14 15:30:00,
2013-05-14 08:36:00,66.4,58.3,29.87,East,90,1.4,6.4,74,0.00,n/a,n/a,-99.99,Henriksen +1-Wire,2013-05-14 15:36:00,
2013-05-14 08:42:00,67.2,58.4,29.86,ESE,104,1.9,5.2,73,0.00,n/a,n/a,-99.99,Henriksen +1-Wire,2013-05-14 15:42:00,
2013-05-14 08:48:00,67.8,58.5,29.86,ESE,106,2.5,5.8,71,0.00,n/a,n/a,-99.99,Henriksen +1-Wire,2013-05-14 15:48:00,
2013-05-14 08:54:00,68.1,58.2,29.87,SE,141,3.3,5.4,70,0.00,n/a,n/a,-99.99,Henriksen +1-Wire,2013-05-14 15:54:00,
2013-05-14 09:00:00,68.3,58.0,29.87,SE,134,1.3,5.4,69,0.00,n/a,n/a,-99.99,Henriksen +1-Wire,2013-05-14 16:00:00,
2013-05-14 09:06:00,68.9,58.2,29.87,SE,134,1.5,3.9,68,0.00,n/a,n/a,-99.99,Henriksen +1-Wire,2013-05-14 16:06:00,
2013-05-14 09:11:00,69.7,58.8,29.87,ESE,107,3.0,6.5,67,0.00,n/a,n/a,-99.99,Henriksen +1-Wire,2013-05-14 16:11:00,
2013-05-14 09:18:00,69.9,58.3,29.87,SE,127,1.8,6.5,66,0.00,n/a,n/a,-99.99,Henriksen +1-Wire,2013-05-14 16:18:00,
2013-05-14 09:24:00,69.5,57.4,29.87,South,174,1.0,6.5,65,0.00,n/a,n/a,-99.99,Henriksen +1-Wire,2013-05-14 16:24:00,
2013-05-14 09:29:00,69.5,57.4,29.87,SE,135,3.3,5.2,64,0.00,n/a,n/a,-99.99,Henriksen +1-Wire,2013-05-14 16:29:00,
2013-05-14 09:36:00,70.3,58.1,29.87,East,91,1.0,5.2,64,0.00,n/a,n/a,-99.99,Henriksen +1-Wire,2013-05-14 16:36:00,
2013-05-14 09:42:00,71.1,58.4,29.87,SE,134,2.4,4.5,63,0.00,n/a,n/a,-99.99,Henriksen +1-Wire,2013-05-14 16:42:00,
2013-05-14 09:48:00,71.5,58.3,29.87,SE,136,1.9,4.5,62,0.00,n/a,n/a,-99.99,Henriksen +1-Wire,2013-05-14 16:48:00,
2013-05-14 09:54:00,71.8,58.2,29.87,SSE,148,3.0,5.2,61,0.00,n/a,n/a,-99.99,Henriksen +1-Wire,2013-05-14 16:54:00,
2013-05-14 10:00:00,71.8,58.0,29.87,SE,124,3.1,7.1,61,0.00,n/a,n/a,-99.99,Henriksen +1-Wire,2013-05-14 17:00:00,
2013-05-14 10:06:00,72.1,58.0,29.87,SE,131,1.7,7.1,60,0.00,n/a,n/a,-99.99,Henriksen +1-Wire,2013-05-14 17:06:00,
2013-05-14 10:12:00,72.5,58.3,29.87,SE,126,0.5,5.2,60,0.00,n/a,n/a,-99.99,Henriksen +1-Wire,2013-05-14 17:12:00,
2013-05-14 10:18:00,73.5,59.1,29.87,SE,132,1.3,4.5,60,0.00,n/a,n/a,-99.99,Henriksen +1-Wire,2013-05-14 17:18:00,
2013-05-14 10:24:00,73.8,59.0,29.88,SW,235,1.5,6.5,59,0.00,n/a,n/a,-99.99,Henriksen +1-Wire,2013-05-14 17:24:00,
2013-05-14 10:30:00,74.2,59.0,29.88,South,181,2.4,6.5,58,0.00,n/a,n/a,-99.99,Henriksen +1-Wire,2013-05-14 17:30:00,
2013-05-14 10:36:00,74.5,58.8,29.88,South,184,1.9,6.5,57,0.00,n/a,n/a,-99.99,Henriksen +1-Wire,2013-05-14 17:36:00,
2013-05-14 10:42:00,74.3,58.4,29.88,SE,144,0.8,6.5,57,0.00,n/a,n/a,-99.99,Henriksen +1-Wire,2013-05-14 17:42:00,
2013-05-14 10:48:00,74.5,58.6,29.87,South,174,1.4,5.2,57,0.00,n/a,n/a,-99.99,Henriksen +1-Wire,2013-05-14 17:48:00,
2013-05-14 10:54:00,75.0,58.9,29.88,SW,229,1.3,6.8,56,0.00,n/a,n/a,-99.99,Henriksen +1-Wire,2013-05-14 17:54:00,
2013-05-14 11:00:00,75.4,59.0,29.88,SE,130,2.2,7.1,56,0.00,n/a,n/a,-99.99,Henriksen +1-Wire,2013-05-14 18:00:00,
2013-05-14 11:06:00,76.0,59.5,29.88,SW,234,1.7,5.2,56,0.00,n/a,n/a,-99.99,Henriksen +1-Wire,2013-05-14 18:06:00,
2013-05-14 11:12:00,76.7,60.1,29.88,SW,226,2.1,4.5,56,0.00,n/a,n/a,-99.99,Henriksen +1-Wire,2013-05-14 18:12:00,
2013-05-14 11:18:00,77.3,60.3,29.88,SW,224,1.4,5.6,55,0.00,n/a,n/a,-99.99,Henriksen +1-Wire,2013-05-14 18:18:00,
2013-05-14 11:24:00,77.7,60.0,29.88,SW,217,1.9,5.6,53,0.00,n/a,n/a,-99.99,Henriksen +1-Wire,2013-05-14 18:24:00,
2013-05-14 11:30:00,78.0,59.8,29.87,SW,221,2.8,6.5,52,0.00,n/a,n/a,-99.99,Henriksen +1-Wire,2013-05-14 18:30:00,
2013-05-14 11:36:00,78.4,59.9,29.87,SE,131,2.5,6.5,52,0.00,n/a,n/a,-99.99,Henriksen +1-Wire,2013-05-14 18:36:00,
2013-05-14 11:42:00,78.9,60.1,29.88,ESE,119,1.1,6.5,51,0.00,n/a,n/a,-99.99,Henriksen +1-Wire,2013-05-14 18:42:00,
2013-05-14 11:48:00,79.4,60.5,29.87,SE,128,1.3,6.0,51,0.00,n/a,n/a,-99.99,Henriksen +1-Wire,2013-05-14 18:48:00,
2013-05-14 11:54:00,79.9,60.8,29.87,SE,136,1.3,6.0,51,0.00,n/a,n/a,-99.99,Henriksen +1-Wire,2013-05-14 18:54:00,
2013-05-14 12:00:00,80.3,60.6,29.88,South,176,0.8,5.2,50,0.00,n/a,n/a,-99.99,Henriksen +1-Wire,2013-05-14 19:00:00,
2013-05-14 12:06:00,80.8,60.4,29.87,SE,131,1.9,4.5,49,0.00,n/a,n/a,-99.99,Henriksen +1-Wire,2013-05-14 19:06:00,
2013-05-14 12:12:00,81.7,60.4,29.87,West,259,1.5,5.8,48,0.00,n/a,n/a,-99.99,Henriksen +1-Wire,2013-05-14 19:12:00,
2013-05-14 12:18:00,82.1,60.3,29.87,SW,234,0.8,5.8,47,0.00,n/a,n/a,-99.99,Henriksen +1-Wire,2013-05-14 19:18:00,
2013-05-14 12:24:00,82.4,60.1,29.87,West,271,0.5,3.5,46,0.00,n/a,n/a,-99.99,Henriksen +1-Wire,2013-05-14 19:24:00,
2013-05-14 12:30:00,82.8,60.1,29.86,West,259,1.7,5.8,45,0.00,n/a,n/a,-99.99,Henriksen +1-Wire,2013-05-14 19:30:00,
2013-05-14 12:36:00,83.3,59.9,29.86,South,186,0.7,5.2,44,0.00,n/a,n/a,-99.99,Henriksen +1-Wire,2013-05-14 19:36:00,
2013-05-14 12:42:00,83.6,59.6,29.86,SSW,212,2.2,5.2,43,0.00,n/a,n/a,-99.99,Henriksen +1-Wire,2013-05-14 19:42:00,
2013-05-14 12:48:00,83.9,59.5,29.86,South,190,2.6,5.2,43,0.00,n/a,n/a,-99.99,Henriksen +1-Wire,2013-05-14 19:48:00,
2013-05-14 12:54:00,84.3,59.6,29.86,WSW,237,2.0,5.2,42,0.00,n/a,n/a,-99.99,Henriksen +1-Wire,2013-05-14 19:54:00,
2013-05-14 13:00:00,84.4,59.7,29.86,SSE,168,1.4,6.5,42,0.00,n/a,n/a,-99.99,Henriksen +1-Wire,2013-05-14 20:00:00,
2013-05-14 13:06:00,84.4,59.9,29.86,SSW,212,2.4,8.4,42,0.00,n/a,n/a,-99.99,Henriksen +1-Wire,2013-05-14 20:06:00,
2013-05-14 13:12:00,84.6,60.6,29.85,ESE,115,3.1,7.8,43,0.00,n/a,n/a,-99.99,Henriksen +1-Wire,2013-05-14 20:12:00,
2013-05-14 13:18:00,84.7,61.4,29.85,SE,135,1.3,7.8,44,0.00,n/a,n/a,-99.99,Henriksen +1-Wire,2013-05-14 20:18:00,
2013-05-14 13:24:00,85.2,61.8,29.85,SSE,153,3.8,7.7,44,0.00,n/a,n/a,-99.99,Henriksen +1-Wire,2013-05-14 20:24:00,
2013-05-14 13:30:00,85.8,62.1,29.85,SW,225,3.7,7.8,44,0.00,n/a,n/a,-99.99,Henriksen +1-Wire,2013-05-14 20:30:00,
2013-05-14 13:36:00,86.0,62.1,29.85,SW,222,3.3,7.1,44,0.00,n/a,n/a,-99.99,Henriksen +1-Wire,2013-05-14 20:36:00,
2013-05-14 13:42:00,86.0,61.7,29.85,SSW,213,2.4,7.1,43,0.00,n/a,n/a,-99.99,Henriksen +1-Wire,2013-05-14 20:42:00,
2013-05-14 13:48:00,86.0,61.4,29.85,South,191,4.8,7.8,43,0.00,n/a,n/a,-99.99,Henriksen +1-Wire,2013-05-14 20:48:00,
2013-05-14 13:54:00,86.2,61.2,29.85,SW,221,2.5,7.8,42,0.00,n/a,n/a,-99.99,Henriksen +1-Wire,2013-05-14 20:54:00,
2013-05-14 14:00:00,86.3,61.2,29.85,South,190,2.7,10.4,42,0.00,n/a,n/a,-99.99,Henriksen +1-Wire,2013-05-14 21:00:00,
2013-05-14 14:06:00,86.3,60.9,29.85,SSW,194,2.1,10.4,41,0.00,n/a,n/a,-99.99,Henriksen +1-Wire,2013-05-14 21:06:00,
2013-05-14 14:12:00,86.5,61.0,29.84,SW,230,2.2,7.1,41,0.00,n/a,n/a,-99.99,Henriksen +1-Wire,2013-05-14 21:12:00,
2013-05-14 14:18:00,86.4,61.1,29.85,SSW,211,4.5,9.1,42,0.00,n/a,n/a,-99.99,Henriksen +1-Wire,2013-05-14 21:18:00,
2013-05-14 14:24:00,86.2,60.9,29.84,South,178,3.1,9.1,42,0.00,n/a,n/a,-99.99,Henriksen +1-Wire,2013-05-14 21:24:00,
2013-05-14 14:30:00,86.3,61.0,29.84,South,177,2.1,8.4,42,0.00,n/a,n/a,-99.99,Henriksen +1-Wire,2013-05-14 21:30:00,
2013-05-14 14:36:00,86.2,60.8,29.84,SE,141,3.2,8.4,41,0.00,n/a,n/a,-99.99,Henriksen +1-Wire,2013-05-14 21:36:00,
2013-05-14 14:42:00,86.1,60.5,29.83,SE,137,3.9,8.4,41,0.00,n/a,n/a,-99.99,Henriksen +1-Wire,2013-05-14 21:42:00,
2013-05-14 14:48:00,85.8,60.3,29.83,South,173,2.9,9.1,41,0.00,n/a,n/a,-99.99,Henriksen +1-Wire,2013-05-14 21:48:00,
2013-05-14 14:54:00,85.9,60.3,29.84,South,189,2.3,9.0,41,0.00,n/a,n/a,-99.99,Henriksen +1-Wire,2013-05-14 21:54:00,
2013-05-14 15:00:00,86.5,61.3,29.84,South,182,1.5,7.1,42,0.00,n/a,n/a,-99.99,Henriksen +1-Wire,2013-05-14 22:00:00,
2013-05-14 15:06:00,86.9,61.5,29.84,SSW,193,2.6,8.4,41,0.00,n/a,n/a,-99.99,Henriksen +1-Wire,2013-05-14 22:06:00,
2013-05-14 15:12:00,87.1,60.8,29.84,SW,219,2.0,8.4,40,0.00,n/a,n/a,-99.99,Henriksen +1-Wire,2013-05-14 22:12:00,
2013-05-14 15:18:00,87.1,60.3,29.84,South,173,3.6,7.7,39,0.00,n/a,n/a,-99.99,Henriksen +1-Wire,2013-05-14 22:18:00,
2013-05-14 15:24:00,87.4,60.4,29.84,SE,130,4.1,9.7,39,0.00,n/a,n/a,-99.99,Henriksen +1-Wire,2013-05-14 22:24:00,
2013-05-14 15:30:00,87.2,60.1,29.84,SE,135,4.3,10.4,39,0.00,n/a,n/a,-99.99,Henriksen +1-Wire,2013-05-14 22:30:00,
2013-05-14 15:36:00,87.1,59.7,29.84,SSE,166,2.7,10.4,39,0.00,n/a,n/a,-99.99,Henriksen +1-Wire,2013-05-14 22:36:00,
2013-05-14 15:42:00,87.4,59.8,29.84,SE,130,4.6,9.1,38,0.00,n/a,n/a,-99.99,Henriksen +1-Wire,2013-05-14 22:42:00,
2013-05-14 15:48:00,87.7,59.9,29.84,SE,129,3.9,9.1,38,0.00,n/a,n/a,-99.99,Henriksen +1-Wire,2013-05-14 22:48:00,
2013-05-14 15:54:00,87.9,59.7,29.84,South,183,2.2,8.4,38,0.00,n/a,n/a,-99.99,Henriksen +1-Wire,2013-05-14 22:54:00,
2013-05-14 16:00:00,88.0,59.8,29.84,South,170,4.8,9.7,38,0.00,n/a,n/a,-99.99,Henriksen +1-Wire,2013-05-14 23:00:00,
2013-05-14 16:06:00,87.9,59.6,29.84,SE,133,3.8,9.7,38,0.00,n/a,n/a,-99.99,Henriksen +1-Wire,2013-05-14 23:06:00,
2013-05-14 16:12:00,88.1,59.7,29.84,SE,145,6.1,9.7,37,0.00,n/a,n/a,-99.99,Henriksen +1-Wire,2013-05-14 23:12:00,
2013-05-14 16:18:00,88.0,59.6,29.84,SE,133,4.9,9.7,37,0.00,n/a,n/a,-99.99,Henriksen +1-Wire,2013-05-14 23:18:00,
2013-05-14 16:24:00,87.7,59.4,29.84,SE,143,4.7,10.4,37,0.00,n/a,n/a,-99.99,Henriksen +1-Wire,2013-05-14 23:24:00,
2013-05-14 16:30:00,87.4,59.1,29.84,SE,143,4.5,11.1,37,0.00,n/a,n/a,-99.99,Henriksen +1-Wire,2013-05-14 23:30:00,
2013-05-14 16:36:00,87.4,59.2,29.84,SE,137,3.6,11.7,37,0.00,n/a,n/a,-99.99,Henriksen +1-Wire,2013-05-14 23:36:00,
2013-05-14 16:42:00,87.4,59.3,29.84,SW,217,4.7,11.0,38,0.00,n/a,n/a,-99.99,Henriksen +1-Wire,2013-05-14 23:42:00,
2013-05-14 16:48:00,87.3,59.5,29.84,SSW,192,6.1,13.0,38,0.00,n/a,n/a,-99.99,Henriksen +1-Wire,2013-05-14 23:48:00,
2013-05-14 16:54:00,87.3,59.6,29.84,South,181,3.3,13.0,38,0.00,n/a,n/a,-99.99,Henriksen +1-Wire,2013-05-14 23:54:00,
2013-05-14 17:00:00,87.2,59.4,29.84,South,183,3.1,11.7,38,0.00,n/a,n/a,-99.99,Henriksen +1-Wire,2013-05-15 00:00:00,
2013-05-14 17:06:00,87.0,59.2,29.84,South,178,4.0,11.7,38,0.00,n/a,n/a,-99.99,Henriksen +1-Wire,2013-05-15 00:06:00,
2013-05-14 17:12:00,86.5,58.7,29.84,SSW,192,5.8,13.6,38,0.00,n/a,n/a,-99.99,Henriksen +1-Wire,2013-05-15 00:12:00,
2013-05-14 17:18:00,86.0,58.2,29.84,SSW,195,4.2,13.6,38,0.00,n/a,n/a,-99.99,Henriksen +1-Wire,2013-05-15 00:18:00,
2013-05-14 17:24:00,85.6,57.9,29.83,SW,214,4.3,10.8,38,0.00,n/a,n/a,-99.99,Henriksen +1-Wire,2013-05-15 00:24:00,
2013-05-14 17:30:00,85.4,57.7,29.84,SW,217,3.5,10.8,38,0.00,n/a,n/a,-99.99,Henriksen +1-Wire,2013-05-15 00:30:00,
2013-05-14 17:36:00,85.1,57.4,29.84,South,191,3.9,9.7,38,0.00,n/a,n/a,-99.99,Henriksen +1-Wire,2013-05-15 00:36:00,
2013-05-14 17:42:00,84.6,56.9,29.84,SSW,213,4.6,11.7,38,0.00,n/a,n/a,-99.99,Henriksen +1-Wire,2013-05-15 00:42:00,
2013-05-14 17:48:00,84.4,57.0,29.84,SW,216,5.3,11.7,38,0.00,n/a,n/a,-99.99,Henriksen +1-Wire,2013-05-15 00:48:00,
2013-05-14 17:54:00,84.2,56.9,29.84,SW,221,3.5,9.7,38,0.00,n/a,n/a,-99.99,Henriksen +1-Wire,2013-05-15 00:54:00,
2013-05-14 18:00:00,83.6,56.5,29.84,SW,214,6.8,12.3,39,0.00,n/a,n/a,-99.99,Henriksen +1-Wire,2013-05-15 01:00:00,
2013-05-14 18:06:00,83.0,56.0,29.84,SW,218,3.8,12.3,39,0.00,n/a,n/a,-99.99,Henriksen +1-Wire,2013-05-15 01:06:00,
2013-05-14 18:12:00,82.9,56.0,29.84,SSW,213,4.6,9.7,39,0.00,n/a,n/a,-99.99,Henriksen +1-Wire,2013-05-15 01:12:00,
2013-05-14 18:18:00,82.5,55.5,29.84,SSW,204,5.3,10.9,39,0.00,n/a,n/a,-99.99,Henriksen +1-Wire,2013-05-15 01:18:00,
2013-05-14 18:24:00,82.1,55.1,29.84,SW,218,3.4,11.0,38,0.00,n/a,n/a,-99.99,Henriksen +1-Wire,2013-05-15 01:24:00,
2013-05-14 18:30:00,81.9,55.1,29.83,SW,221,4.5,10.4,39,0.00,n/a,n/a,-99.99,Henriksen +1-Wire,2013-05-15 01:30:00,
2013-05-14 18:36:00,81.6,55.1,29.83,SSW,210,6.2,10.4,39,0.00,n/a,n/a,-99.99,Henriksen +1-Wire,2013-05-15 01:36:00,
2013-05-14 18:42:00,81.3,55.0,29.83,SSW,204,4.0,10.4,39,0.00,n/a,n/a,-99.99,Henriksen +1-Wire,2013-05-15 01:42:00,
2013-05-14 18:48:00,81.0,55.0,29.83,SW,217,3.8,8.4,40,0.00,n/a,n/a,-99.99,Henriksen +1-Wire,2013-05-15 01:48:00,
2013-05-14 18:54:00,80.8,55.0,29.83,South,188,4.5,10.9,40,0.00,n/a,n/a,-99.99,Henriksen +1-Wire,2013-05-15 01:54:00,
2013-05-14 19:00:00,80.5,54.9,29.83,SSW,194,4.1,10.9,40,0.00,n/a,n/a,-99.99,Henriksen +1-Wire,2013-05-15 02:00:00,
2013-05-14 19:06:00,80.0,54.8,29.83,SSW,212,3.2,9.7,41,0.00,n/a,n/a,-99.99,Henriksen +1-Wire,2013-05-15 02:06:00,
2013-05-14 19:12:00,79.6,54.8,29.83,SSW,192,5.2,8.4,41,0.00,n/a,n/a,-99.99,Henriksen +1-Wire,2013-05-15 02:12:00,
2013-05-14 19:18:00,79.2,54.6,29.83,SSW,193,3.9,8.4,42,0.00,n/a,n/a,-99.99,Henriksen +1-Wire,2013-05-15 02:18:00,
2013-05-14 19:24:00,78.5,54.2,29.82,SSW,213,5.5,10.3,42,0.00,n/a,n/a,-99.99,Henriksen +1-Wire,2013-05-15 02:24:00,
2013-05-14 19:30:00,78.1,54.0,29.82,SSW,213,3.8,11.0,42,0.00,n/a,n/a,-99.99,Henriksen +1-Wire,2013-05-15 02:30:00,
2013-05-14 19:36:00,77.6,53.8,29.83,SW,218,4.6,11.7,43,0.00,n/a,n/a,-99.99,Henriksen +1-Wire,2013-05-15 02:36:00,
2013-05-14 19:42:00,77.0,53.7,29.82,SW,222,5.7,11.7,43,0.00,n/a,n/a,-99.99,Henriksen +1-Wire,2013-05-15 02:42:00,
2013-05-14 19:48:00,76.5,53.6,29.83,SSW,211,5.5,12.2,44,0.00,n/a,n/a,-99.99,Henriksen +1-Wire,2013-05-15 02:48:00,
2013-05-14 19:54:00,76.0,53.5,29.83,SW,219,4.2,11.0,45,0.00,n/a,n/a,-99.99,Henriksen +1-Wire,2013-05-15 02:54:00,
2013-05-14 20:00:00,75.6,53.6,29.84,SW,216,4.1,11.0,45,0.00,n/a,n/a,-99.99,Henriksen +1-Wire,2013-05-15 03:00:00,
2013-05-14 20:06:00,75.2,53.7,29.84,South,189,4.9,10.8,46,0.00,n/a,n/a,-99.99,Henriksen +1-Wire,2013-05-15 03:06:00,
2013-05-14 20:12:00,74.7,53.6,29.84,SSW,211,4.8,10.4,47,0.00,n/a,n/a,-99.99,Henriksen +1-Wire,2013-05-15 03:12:00,
2013-05-14 20:18:00,74.2,53.6,29.84,SW,215,3.9,9.7,48,0.00,n/a,n/a,-99.99,Henriksen +1-Wire,2013-05-15 03:18:00,
2013-05-14 20:24:00,73.7,53.5,29.83,South,190,4.1,9.7,48,0.00,n/a,n/a,-99.99,Henriksen +1-Wire,2013-05-15 03:24:00,
2013-05-14 20:30:00,73.3,53.3,29.83,SSW,212,4.7,9.7,49,0.00,n/a,n/a,-99.99,Henriksen +1-Wire,2013-05-15 03:30:00,
2013-05-14 20:36:00,72.7,53.1,29.83,SSW,213,3.4,9.7,49,0.00,n/a,n/a,-99.99,Henriksen +1-Wire,2013-05-15 03:36:00,
2013-05-14 20:42:00,72.4,53.1,29.83,South,185,3.1,9.1,50,0.00,n/a,n/a,-99.99,Henriksen +1-Wire,2013-05-15 03:42:00,
2013-05-14 20:48:00,72.0,53.0,29.83,SW,217,2.2,9.1,50,0.00,n/a,n/a,-99.99,Henriksen +1-Wire,2013-05-15 03:48:00,
2013-05-14 20:54:00,71.7,53.0,29.83,SE,145,2.6,6.5,51,0.00,n/a,n/a,-99.99,Henriksen +1-Wire,2013-05-15 03:54:00,
2013-05-14 21:00:00,71.3,52.8,29.83,SE,146,3.2,6.5,51,0.00,n/a,n/a,-99.99,Henriksen +1-Wire,2013-05-15 04:00:00,
2013-05-14 21:06:00,70.9,52.6,29.84,SE,133,5.1,11.7,52,0.00,n/a,n/a,-99.99,Henriksen +1-Wire,2013-05-15 04:06:00,
2013-05-14 21:12:00,70.5,52.4,29.84,SE,131,1.2,11.7,52,0.00,n/a,n/a,-99.99,Henriksen +1-Wire,2013-05-15 04:12:00,
2013-05-14 21:18:00,70.1,52.3,29.85,SE,129,4.9,7.7,52,0.00,n/a,n/a,-99.99,Henriksen +1-Wire,2013-05-15 04:18:00,
2013-05-14 21:24:00,69.9,52.4,29.85,SE,143,2.0,7.7,53,0.00,n/a,n/a,-99.99,Henriksen +1-Wire,2013-05-15 04:24:00,
2013-05-14 21:30:00,69.7,52.5,29.85,SE,138,3.8,9.1,54,0.00,n/a,n/a,-99.99,Henriksen +1-Wire,2013-05-15 04:30:00,
2013-05-14 21:36:00,69.3,52.4,29.85,SSE,147,4.6,9.1,54,0.00,n/a,n/a,-99.99,Henriksen +1-Wire,2013-05-15 04:36:00,
2013-05-14 21:42:00,68.9,52.0,29.85,SE,133,2.3,7.1,54,0.00,n/a,n/a,-99.99,Henriksen +1-Wire,2013-05-15 04:42:00,
2013-05-14 21:48:00,68.5,51.7,29.85,SE,140,3.4,6.5,54,0.00,n/a,n/a,-99.99,Henriksen +1-Wire,2013-05-15 04:48:00,
2013-05-14 21:54:00,68.3,51.8,29.86,SE,141,2.4,5.8,55,0.00,n/a,n/a,-99.99,Henriksen +1-Wire,2013-05-15 04:54:00,
2013-05-14 22:00:00,68.1,51.8,29.86,SE,139,4.6,9.1,55,0.00,n/a,n/a,-99.99,Henriksen +1-Wire,2013-05-15 05:00:00,
2013-05-14 22:06:00,68.0,51.8,29.85,SE,127,1.5,9.1,55,0.00,n/a,n/a,-99.99,Henriksen +1-Wire,2013-05-15 05:06:00,
2013-05-14 22:12:00,67.9,51.9,29.86,ESE,110,2.7,5.2,56,0.00,n/a,n/a,-99.99,Henriksen +1-Wire,2013-05-15 05:12:00,
2013-05-14 22:18:00,67.7,51.9,29.87,SE,128,4.0,6.5,56,0.00,n/a,n/a,-99.99,Henriksen +1-Wire,2013-05-15 05:18:00,
2013-05-14 22:24:00,67.4,51.8,29.87,SE,136,3.0,7.8,56,0.00,n/a,n/a,-99.99,Henriksen +1-Wire,2013-05-15 05:24:00,
2013-05-14 22:30:00,67.2,51.6,29.87,SE,134,4.7,7.8,57,0.00,n/a,n/a,-99.99,Henriksen +1-Wire,2013-05-15 05:30:00,
2013-05-14 22:36:00,66.9,51.7,29.86,ESE,116,4.0,7.8,57,0.00,n/a,n/a,-99.99,Henriksen +1-Wire,2013-05-15 05:36:00,
2013-05-14 22:42:00,66.7,51.9,29.86,SE,129,3.9,8.4,58,0.00,n/a,n/a,-99.99,Henriksen +1-Wire,2013-05-15 05:42:00,
2013-05-14 22:48:00,66.5,51.9,29.87,SE,132,3.4,8.4,59,0.00,n/a,n/a,-99.99,Henriksen +1-Wire,2013-05-15 05:48:00,
2013-05-14 22:54:00,66.2,51.9,29.87,ESE,117,3.5,7.1,59,0.00,n/a,n/a,-99.99,Henriksen +1-Wire,2013-05-15 05:54:00,
2013-05-14 23:00:00,65.8,51.8,29.87,SE,129,2.9,6.5,60,0.00,n/a,n/a,-99.99,Henriksen +1-Wire,2013-05-15 06:00:00,
2013-05-14 23:06:00,65.6,51.7,29.88,SE,135,1.8,6.4,60,0.00,n/a,n/a,-99.99,Henriksen +1-Wire,2013-05-15 06:06:00,
2013-05-14 23:12:00,65.3,51.6,29.88,ESE,116,3.3,6.4,60,0.00,n/a,n/a,-99.99,Henriksen +1-Wire,2013-05-15 06:12:00,
2013-05-14 23:18:00,65.0,51.5,29.88,SE,131,4.5,8.4,61,0.00,n/a,n/a,-99.99,Henriksen +1-Wire,2013-05-15 06:18:00,
2013-05-14 23:24:00,64.6,51.3,29.88,SE,139,3.5,8.4,61,0.00,n/a,n/a,-99.99,Henriksen +1-Wire,2013-05-15 06:24:00,
2013-05-14 23:30:00,64.4,51.1,29.89,SE,138,3.6,9.7,61,0.00,n/a,n/a,-99.99,Henriksen +1-Wire,2013-05-15 06:30:00,
2013-05-14 23:36:00,64.1,50.9,29.89,SSE,155,3.7,11.0,61,0.00,n/a,n/a,-99.99,Henriksen +1-Wire,2013-05-15 06:36:00,
2013-05-14 23:42:00,63.7,50.7,29.89,SE,142,4.7,11.0,62,0.00,n/a,n/a,-99.99,Henriksen +1-Wire,2013-05-15 06:42:00,
2013-05-14 23:48:00,63.5,50.5,29.89,SE,142,4.6,10.9,62,0.00,n/a,n/a,-99.99,Henriksen +1-Wire,2013-05-15 06:48:00,
2013-05-14 23:54:00,63.2,50.3,29.89,SE,139,4.1,8.3,62,0.00,n/a,n/a,-99.99,Henriksen +1-Wire,2013-05-15 06:54:00,